DLH56G LPPT-EDDF

Flight info

Callsign DLH56G
Flight time 1h 54m
Altitude 32000
Route IXIDA DCT TOSDI/N0457F340 DCT ZMR DCT NUBLO DCT RONSI DCT DELOG DCT PEXOD DCT DIDIG DCT TIRAV DCT ERJAZ DCT PIWIZ DCT TSU UN858 OQQAL DCT RANUX/N0457F350 DCT VALEK DCT LIPNI DCT LIMGO Z111 TUTOV/N0422F230 Z111 RAMOB IMCOM1A
Aircraft A321/M-SDE3FGHIRWY/LB1

Departure

Time 2026-05-07 18:36
Airport Lisbon Humberto Delgado Airport (LPPT)

Arrival

Time 2026-05-07 20:31
Airport Frankfurt Main Airport (EDDF)
Time Latitude Longitude Altitude Speed Heading
2026-05-07 17:51 38.77115 -9.13119 360 ft 0 kts 78°
2026-05-07 18:22 38.77112 -9.13139 357 ft 4 kts 78°
2026-05-07 18:22 38.77106 -9.13168 358 ft 4 kts 60°
2026-05-07 18:23 38.77090 -9.13188 360 ft 4 kts 12°
2026-05-07 18:23 38.77063 -9.13190 357 ft 4 kts 351°
2026-05-07 18:23 38.77037 -9.13183 359 ft 4 kts 344°
2026-05-07 18:23 38.77015 -9.13175 355 ft 1 kts 348°
2026-05-07 18:26 38.77016 -9.13175 355 ft 0 kts 348°
2026-05-07 18:26 38.77029 -9.13179 356 ft 4 kts 348°
2026-05-07 18:27 38.77075 -9.13191 355 ft 9 kts 348°
2026-05-07 18:27 38.77150 -9.13211 351 ft 12 kts 348°
2026-05-07 18:27 38.77231 -9.13232 354 ft 12 kts 348°
2026-05-07 18:27 38.77287 -9.13247 353 ft 13 kts 348°
2026-05-07 18:28 38.77324 -9.13364 351 ft 13 kts 256°
2026-05-07 18:28 38.77302 -9.13473 355 ft 12 kts 256°
2026-05-07 18:28 38.77282 -9.13588 351 ft 15 kts 258°
2026-05-07 18:28 38.77258 -9.13733 357 ft 19 kts 258°
2026-05-07 18:29 38.77197 -9.13864 360 ft 17 kts 208°
2026-05-07 18:29 38.77085 -9.13925 354 ft 18 kts 203°
2026-05-07 18:29 38.76968 -9.13983 356 ft 18 kts 202°
2026-05-07 18:29 38.76851 -9.14050 356 ft 19 kts 204°
2026-05-07 18:30 38.76731 -9.14116 354 ft 19 kts 202°
2026-05-07 18:30 38.76628 -9.14168 358 ft 14 kts 202°
2026-05-07 18:30 38.76598 -9.14236 357 ft 9 kts 285°
2026-05-07 18:30 38.76605 -9.14266 355 ft 2 kts 287°
2026-05-07 18:34 38.76606 -9.14270 354 ft 3 kts 287°
2026-05-07 18:34 38.76622 -9.14328 352 ft 9 kts 290°
2026-05-07 18:34 38.76651 -9.14386 354 ft 5 kts 344°
2026-05-07 18:35 38.76656 -9.14382 352 ft 0 kts 20°
2026-05-07 18:35 38.76660 -9.14380 358 ft 4 kts 20°
2026-05-07 18:35 38.76873 -9.14272 360 ft 67 kts 22°
2026-05-07 18:36 38.77501 -9.13936 359 ft 127 kts 22°
2026-05-07 18:36 38.78470 -9.13409 366 ft 173 kts 18°
2026-05-07 18:36 38.79556 -9.12806 1056 ft 167 kts 19°
2026-05-07 18:36 38.80635 -9.12202 1668 ft 172 kts 17°
2026-05-07 18:37 38.81756 -9.11576 2000 ft 182 kts 27°
2026-05-07 18:37 38.82880 -9.10665 2277 ft 199 kts 28°
2026-05-07 18:37 38.84096 -9.09701 2605 ft 212 kts 27°
2026-05-07 18:37 38.85399 -9.08696 2888 ft 225 kts 27°
2026-05-07 18:38 38.86808 -9.07637 3082 ft 247 kts 26°
2026-05-07 18:38 38.88368 -9.06488 3307 ft 269 kts 26°
2026-05-07 18:38 38.90017 -9.05234 3771 ft 277 kts 32°
2026-05-07 18:38 38.91524 -9.03713 4594 ft 276 kts 40°
2026-05-07 18:39 38.92941 -9.02027 5201 ft 281 kts 44°
2026-05-07 18:39 38.94351 -9.00258 5810 ft 285 kts 45°
2026-05-07 18:39 38.95773 -8.98474 6454 ft 288 kts 46°
2026-05-07 18:39 38.97228 -8.96682 7059 ft 291 kts 45°
2026-05-07 18:40 38.98709 -8.94897 7668 ft 294 kts 45°
2026-05-07 18:40 38.99706 -8.93713 8076 ft 296 kts 45°
2026-05-07 18:40 39.01233 -8.91917 8678 ft 298 kts 44°
2026-05-07 18:40 39.02778 -8.90112 9317 ft 301 kts 44°
2026-05-07 18:41 39.04845 -8.87697 10095 ft 306 kts 44°
2026-05-07 18:41 39.05930 -8.86426 10190 ft 319 kts 44°
2026-05-07 18:41 39.07616 -8.84448 10312 ft 338 kts 44°
2026-05-07 18:41 39.09402 -8.82355 10430 ft 355 kts 44°
2026-05-07 18:42 39.11270 -8.80167 10559 ft 372 kts 44°
2026-05-07 18:42 39.13227 -8.77873 10683 ft 387 kts 44°
2026-05-07 18:42 39.15250 -8.75499 10802 ft 401 kts 44°
2026-05-07 18:42 39.17286 -8.72965 11030 ft 410 kts 50°
2026-05-07 18:43 39.19175 -8.70205 11441 ft 413 kts 50°
2026-05-07 18:43 39.21085 -8.67410 11886 ft 416 kts 50°
2026-05-07 18:43 39.23009 -8.64597 12330 ft 419 kts 50°
2026-05-07 18:43 39.24938 -8.61773 12763 ft 422 kts 50°
2026-05-07 18:44 39.26887 -8.58914 13183 ft 425 kts 50°
2026-05-07 18:44 39.28849 -8.56033 13624 ft 428 kts 50°
2026-05-07 18:44 39.30814 -8.53142 14020 ft 431 kts 50°
2026-05-07 18:44 39.32798 -8.50217 14399 ft 433 kts 50°
2026-05-07 18:45 39.34793 -8.47275 14782 ft 436 kts 50°
2026-05-07 18:45 39.36792 -8.44329 15157 ft 438 kts 50°
2026-05-07 18:45 39.38801 -8.41366 15543 ft 440 kts 50°
2026-05-07 18:45 39.40828 -8.38374 15924 ft 442 kts 50°
2026-05-07 18:46 39.42864 -8.35367 16298 ft 445 kts 50°
2026-05-07 18:46 39.44901 -8.32354 16678 ft 447 kts 50°
2026-05-07 18:46 39.46956 -8.29311 17040 ft 449 kts 50°
2026-05-07 18:46 39.49014 -8.26260 17383 ft 452 kts 50°
2026-05-07 18:47 39.51091 -8.23177 17749 ft 455 kts 50°
2026-05-07 18:47 39.53180 -8.20074 18086 ft 457 kts 50°
2026-05-07 18:47 39.55270 -8.16961 18375 ft 460 kts 50°
2026-05-07 18:47 39.57382 -8.13815 18649 ft 463 kts 50°
2026-05-07 18:48 39.59499 -8.10662 18908 ft 466 kts 50°
2026-05-07 18:48 39.61638 -8.07476 19164 ft 469 kts 49°
2026-05-07 18:48 39.63778 -8.04279 19435 ft 472 kts 49°
2026-05-07 18:48 39.65988 -8.01108 19712 ft 474 kts 46°
2026-05-07 18:49 39.68325 -7.98056 19986 ft 477 kts 45°
2026-05-07 18:49 39.70696 -7.95046 20288 ft 479 kts 44°
2026-05-07 18:49 39.73080 -7.92072 20576 ft 481 kts 44°
2026-05-07 18:49 39.75531 -7.89035 20857 ft 483 kts 43°
2026-05-07 18:50 39.77972 -7.86003 21130 ft 486 kts 43°
2026-05-07 18:50 39.80408 -7.82958 21403 ft 488 kts 44°
2026-05-07 18:50 39.82827 -7.79911 21662 ft 490 kts 44°
2026-05-07 18:50 39.85309 -7.76763 21918 ft 493 kts 44°
2026-05-07 18:51 39.87730 -7.73683 22179 ft 495 kts 44°
2026-05-07 18:51 39.90224 -7.70509 22411 ft 497 kts 44°
2026-05-07 18:51 39.92676 -7.67384 22635 ft 499 kts 44°
2026-05-07 18:51 39.95187 -7.64179 22853 ft 501 kts 44°
2026-05-07 18:52 39.97690 -7.60988 23051 ft 503 kts 44°
2026-05-07 18:52 40.00202 -7.57786 23282 ft 505 kts 44°
2026-05-07 18:52 40.02709 -7.54590 23530 ft 505 kts 44°
2026-05-07 18:52 40.05188 -7.51427 23816 ft 503 kts 43°
2026-05-07 18:53 40.07688 -7.48233 24103 ft 501 kts 43°
2026-05-07 18:53 40.10197 -7.45021 24381 ft 500 kts 43°
2026-05-07 18:53 40.12650 -7.41877 24645 ft 499 kts 43°
2026-05-07 18:53 40.15128 -7.38702 24922 ft 498 kts 43°
2026-05-07 18:54 40.17629 -7.35491 25198 ft 497 kts 43°
2026-05-07 18:54 40.20056 -7.32373 25463 ft 496 kts 43°
2026-05-07 18:54 40.22546 -7.29167 25728 ft 495 kts 43°
2026-05-07 18:54 40.24993 -7.26011 25983 ft 495 kts 43°
2026-05-07 18:55 40.27417 -7.22879 26242 ft 494 kts 43°
2026-05-07 18:55 40.29896 -7.19669 26499 ft 494 kts 43°
2026-05-07 18:55 40.32336 -7.16508 26743 ft 494 kts 43°
2026-05-07 18:55 40.34788 -7.13335 27007 ft 494 kts 43°
2026-05-07 18:56 40.37228 -7.10173 27263 ft 494 kts 42°
2026-05-07 18:56 40.39679 -7.06998 27495 ft 494 kts 42°
2026-05-07 18:56 40.42129 -7.03821 27749 ft 494 kts 42°
2026-05-07 18:56 40.44577 -7.00646 28001 ft 495 kts 42°
2026-05-07 18:57 40.47017 -6.97475 28229 ft 495 kts 42°
2026-05-07 18:57 40.49466 -6.94286 28473 ft 495 kts 42°
2026-05-07 18:57 40.51904 -6.91105 28718 ft 495 kts 42°
2026-05-07 18:57 40.54349 -6.87906 28961 ft 495 kts 42°
2026-05-07 18:58 40.56783 -6.84714 29195 ft 495 kts 42°
2026-05-07 18:58 40.59230 -6.81509 29429 ft 496 kts 41°
2026-05-07 18:58 40.61668 -6.78315 29662 ft 496 kts 41°
2026-05-07 18:58 40.64116 -6.75104 29896 ft 496 kts 41°
2026-05-07 18:59 40.66429 -6.72072 30096 ft 496 kts 41°
2026-05-07 18:59 40.68883 -6.68858 30305 ft 496 kts 41°
2026-05-07 18:59 40.71294 -6.65692 30515 ft 495 kts 41°
2026-05-07 18:59 40.73754 -6.62450 30728 ft 495 kts 41°
2026-05-07 19:00 40.76189 -6.59233 30968 ft 494 kts 41°
2026-05-07 19:00 40.78619 -6.56018 31192 ft 493 kts 41°
2026-05-07 19:00 40.81036 -6.52822 31416 ft 493 kts 41°
2026-05-07 19:00 40.83461 -6.49620 31637 ft 492 kts 41°
2026-05-07 19:01 40.85873 -6.46430 31829 ft 492 kts 41°
2026-05-07 19:01 40.90734 -6.39990 31870 ft 498 kts 41°
2026-05-07 19:02 40.95636 -6.33477 31876 ft 500 kts 41°
2026-05-07 19:02 41.00560 -6.26956 31877 ft 499 kts 39°
2026-05-07 19:03 41.05665 -6.20764 31874 ft 497 kts 36°
2026-05-07 19:03 41.10875 -6.14756 31891 ft 497 kts 36°
2026-05-07 19:04 41.16061 -6.08678 31907 ft 498 kts 37°
2026-05-07 19:04 41.21193 -6.02507 31913 ft 498 kts 37°
2026-05-07 19:05 41.26308 -5.96312 31915 ft 497 kts 37°
2026-05-07 19:05 41.31427 -5.90132 31918 ft 497 kts 37°
2026-05-07 19:06 41.36542 -5.83957 31915 ft 496 kts 37°
2026-05-07 19:06 41.44208 -5.74685 31923 ft 496 kts 37°
2026-05-07 19:07 41.49304 -5.68500 31925 ft 495 kts 37°
2026-05-07 19:07 41.54777 -5.63147 31929 ft 482 kts 21°
2026-05-07 19:08 41.60845 -5.59585 31929 ft 476 kts 16°
2026-05-07 19:08 41.66940 -5.56149 31928 ft 475 kts 16°
2026-05-07 19:09 41.73022 -5.52694 31922 ft 474 kts 16°
2026-05-07 19:09 41.79108 -5.49252 31930 ft 473 kts 16°
2026-05-07 19:10 41.85171 -5.45819 31930 ft 473 kts 16°
2026-05-07 19:10 41.91223 -5.42372 31932 ft 472 kts 16°
2026-05-07 19:11 41.97266 -5.38932 31930 ft 471 kts 16°
2026-05-07 19:11 42.06608 -5.33584 32234 ft 468 kts 16°
2026-05-07 19:12 42.12584 -5.30158 32663 ft 465 kts 16°
2026-05-07 19:12 42.18542 -5.26741 33002 ft 464 kts 15°
2026-05-07 19:12 42.24463 -5.23337 33330 ft 463 kts 15°
2026-05-07 19:12 42.30375 -5.19927 33620 ft 463 kts 15°
2026-05-07 19:13 42.36303 -5.16506 33902 ft 463 kts 15°
2026-05-07 19:13 42.42663 -5.12830 33903 ft 463 kts 15°
2026-05-07 19:13 42.66326 -4.99054 33893 ft 462 kts 16°
2026-05-07 19:14 42.89887 -4.85234 33956 ft 461 kts 17°
2026-05-07 19:14 43.01660 -4.78276 33760 ft 462 kts 18°
2026-05-07 19:14 43.13326 -4.71368 33879 ft 456 kts 18°
2026-05-07 19:15 43.25016 -4.64398 34015 ft 454 kts 18°
2026-05-07 19:15 43.36676 -4.57428 33856 ft 461 kts 18°
2026-05-07 19:15 43.60052 -4.43371 33980 ft 454 kts 18°
2026-05-07 19:16 43.83419 -4.29191 33777 ft 460 kts 19°
2026-05-07 19:16 43.95067 -4.22082 33943 ft 455 kts 19°
2026-05-07 19:16 44.02806 -4.17321 33887 ft 458 kts 19°
2026-05-07 19:17 44.14497 -4.10125 34004 ft 459 kts 19°
2026-05-07 19:17 44.26238 -4.02883 33759 ft 465 kts 20°
2026-05-07 19:17 44.37482 -3.94333 33851 ft 467 kts 31°
2026-05-07 19:17 44.48193 -3.83981 34052 ft 464 kts 31°
2026-05-07 19:18 44.58876 -3.73661 33897 ft 470 kts 31°
2026-05-07 19:18 44.69606 -3.63220 33791 ft 472 kts 31°
2026-05-07 19:18 44.91047 -3.42202 34065 ft 467 kts 32°
2026-05-07 19:19 45.03450 -3.29963 33933 ft 468 kts 30°
2026-05-07 19:19 45.06339 -3.27937 33945 ft 460 kts 14°
2026-05-07 19:19 45.09426 -3.26934 33955 ft 454 kts
2026-05-07 19:20 45.16378 -3.25932 33952 ft 457 kts 12°
2026-05-07 19:20 45.22203 -3.22150 33964 ft 462 kts 23°
2026-05-07 19:20 45.28216 -3.19033 33960 ft 459 kts 15°
2026-05-07 19:21 45.40270 -3.12882 33928 ft 466 kts 30°
2026-05-07 19:21 45.48771 -3.01797 33921 ft 474 kts 41°
2026-05-07 19:21 45.58486 -2.88927 33959 ft 477 kts 41°
2026-05-07 19:22 45.77836 -2.62603 33988 ft 482 kts 43°
2026-05-07 19:22 45.97320 -2.35885 33996 ft 484 kts 43°
2026-05-07 19:23 46.16167 -2.08059 33998 ft 486 kts 48°
2026-05-07 19:23 46.34551 -1.79277 33995 ft 488 kts 47°
2026-05-07 19:24 46.52914 -1.50209 33996 ft 489 kts 48°
2026-05-07 19:24 46.71219 -1.20832 33998 ft 491 kts 49°
2026-05-07 19:25 46.83837 -1.00367 33998 ft 492 kts 49°
2026-05-07 19:25 46.88402 -0.92926 34005 ft 492 kts 49°
2026-05-07 19:26 46.92961 -0.85460 34004 ft 492 kts 49°
2026-05-07 19:26 46.97515 -0.77977 34003 ft 492 kts 49°
2026-05-07 19:27 47.02067 -0.70483 34005 ft 492 kts 49°
2026-05-07 19:27 47.06580 -0.62937 34002 ft 492 kts 54°
2026-05-07 19:28 47.10415 -0.54625 34004 ft 491 kts 57°
2026-05-07 19:28 47.14202 -0.46280 34006 ft 491 kts 57°
2026-05-07 19:29 47.17967 -0.37903 34006 ft 491 kts 57°
2026-05-07 19:29 47.21727 -0.29510 34007 ft 492 kts 57°
2026-05-07 19:30 47.25498 -0.21112 34009 ft 492 kts 57°
2026-05-07 19:30 47.29279 -0.12684 34010 ft 492 kts 57°
2026-05-07 19:31 47.33037 -0.04244 34013 ft 493 kts 57°
2026-05-07 19:31 47.36788 0.04218 34017 ft 493 kts 57°
2026-05-07 19:32 47.40539 0.12693 34018 ft 493 kts 57°
2026-05-07 19:32 47.44294 0.21175 34019 ft 493 kts 57°
2026-05-07 19:33 47.48037 0.29675 34021 ft 493 kts 57°
2026-05-07 19:33 47.51770 0.38190 34018 ft 493 kts 57°
2026-05-07 19:34 47.55500 0.46713 34041 ft 493 kts 57°
2026-05-07 19:34 47.59224 0.55247 34022 ft 493 kts 57°
2026-05-07 19:35 47.62935 0.63799 34019 ft 493 kts 57°
2026-05-07 19:35 47.66651 0.72377 34039 ft 493 kts 57°
2026-05-07 19:36 47.70354 0.80950 34020 ft 493 kts 57°
2026-05-07 19:36 47.74048 0.89538 34032 ft 493 kts 57°
2026-05-07 19:37 47.77746 0.98127 34024 ft 493 kts 57°
2026-05-07 19:37 47.81465 1.06799 34036 ft 493 kts 57°
2026-05-07 19:38 47.85115 1.15369 34024 ft 493 kts 58°
2026-05-07 19:38 47.88779 1.24001 34023 ft 493 kts 58°
2026-05-07 19:39 47.92432 1.32645 34028 ft 493 kts 57°
2026-05-07 19:39 47.96095 1.41297 34052 ft 493 kts 57°
2026-05-07 19:40 47.99744 1.49947 34056 ft 492 kts 58°
2026-05-07 19:40 48.03381 1.58608 34058 ft 492 kts 58°
2026-05-07 19:41 48.07009 1.67277 34059 ft 492 kts 58°
2026-05-07 19:41 48.10629 1.75953 34043 ft 492 kts 58°
2026-05-07 19:42 48.14243 1.84635 34045 ft 491 kts 58°
2026-05-07 19:42 48.17843 1.93340 34047 ft 491 kts 58°
2026-05-07 19:43 48.21431 2.02046 34050 ft 491 kts 58°
2026-05-07 19:43 48.25022 2.10747 34050 ft 490 kts 58°
2026-05-07 19:44 48.28600 2.19456 34047 ft 490 kts 58°
2026-05-07 19:44 48.32184 2.28227 34055 ft 490 kts 58°
2026-05-07 19:45 48.35723 2.36899 34060 ft 489 kts 58°
2026-05-07 19:45 48.39268 2.45625 34077 ft 489 kts 58°
2026-05-07 19:46 48.42822 2.54411 34082 ft 488 kts 58°
2026-05-07 19:46 48.46333 2.63096 34070 ft 488 kts 58°
2026-05-07 19:47 48.49877 2.71882 34086 ft 487 kts 58°
2026-05-07 19:47 48.53388 2.80623 34075 ft 487 kts 58°
2026-05-07 19:48 48.56882 2.89377 34087 ft 487 kts 58°
2026-05-07 19:48 48.60377 2.98150 34089 ft 486 kts 58°
2026-05-07 19:49 48.63835 3.06857 34070 ft 486 kts 58°
2026-05-07 19:49 48.67308 3.15617 34086 ft 485 kts 58°
2026-05-07 19:50 48.70765 3.24385 34074 ft 485 kts 59°
2026-05-07 19:50 48.74214 3.33155 34080 ft 484 kts 59°
2026-05-07 19:51 48.77656 3.41927 34080 ft 484 kts 59°
2026-05-07 19:51 48.81083 3.50707 34099 ft 484 kts 59°
2026-05-07 19:52 48.84498 3.59496 34086 ft 483 kts 59°
2026-05-07 19:52 48.87918 3.68279 34086 ft 483 kts 59°
2026-05-07 19:53 48.90777 3.75652 34089 ft 483 kts 59°
2026-05-07 19:53 48.94172 3.84461 34086 ft 483 kts 59°
2026-05-07 19:54 48.97565 3.93278 34084 ft 483 kts 59°
2026-05-07 19:54 49.00946 4.02112 34085 ft 483 kts 59°
2026-05-07 19:55 49.04324 4.10953 34079 ft 483 kts 59°
2026-05-07 19:55 49.07695 4.19804 34083 ft 483 kts 59°
2026-05-07 19:56 49.11057 4.28662 34083 ft 482 kts 59°
2026-05-07 19:56 49.14293 4.37645 34082 ft 482 kts 66°
2026-05-07 19:57 49.16860 4.47103 34088 ft 482 kts 67°
2026-05-07 19:57 49.19425 4.56564 34088 ft 482 kts 67°
2026-05-07 19:58 49.21990 4.66030 34087 ft 481 kts 67°
2026-05-07 19:58 49.24538 4.75499 34086 ft 481 kts 67°
2026-05-07 19:59 49.27083 4.84991 34089 ft 481 kts 67°
2026-05-07 19:59 49.29607 4.94477 34088 ft 481 kts 68°
2026-05-07 20:00 49.32124 5.03971 34087 ft 481 kts 68°
2026-05-07 20:00 49.34632 5.13479 34090 ft 481 kts 68°
2026-05-07 20:01 49.37137 5.22980 34087 ft 481 kts 68°
2026-05-07 20:01 49.39635 5.32493 34091 ft 481 kts 68°
2026-05-07 20:02 49.42124 5.42034 34090 ft 480 kts 68°
2026-05-07 20:02 49.44596 5.51563 34090 ft 480 kts 68°
2026-05-07 20:03 49.47070 5.61083 33841 ft 477 kts 68°
2026-05-07 20:03 49.48293 5.65812 33008 ft 477 kts 68°
2026-05-07 20:03 49.49534 5.70552 32168 ft 478 kts 66°
2026-05-07 20:04 49.50847 5.75264 31496 ft 479 kts 65°
2026-05-07 20:04 49.52213 5.79929 30893 ft 480 kts 64°
2026-05-07 20:04 49.53611 5.84605 30295 ft 480 kts 64°
2026-05-07 20:04 49.55005 5.89273 29645 ft 481 kts 65°
2026-05-07 20:05 49.56393 5.93979 29065 ft 482 kts 65°
2026-05-07 20:05 49.57760 5.98691 28535 ft 483 kts 65°
2026-05-07 20:05 49.59122 6.03444 27969 ft 484 kts 65°
2026-05-07 20:05 49.60481 6.08211 27436 ft 485 kts 65°
2026-05-07 20:06 49.61835 6.12971 26905 ft 486 kts 65°
2026-05-07 20:06 49.63198 6.17761 26400 ft 487 kts 65°
2026-05-07 20:06 49.64556 6.22546 25889 ft 488 kts 65°
2026-05-07 20:06 49.65924 6.27359 25404 ft 489 kts 65°
2026-05-07 20:07 49.67285 6.32164 25103 ft 490 kts 66°
2026-05-07 20:07 49.68650 6.36997 25064 ft 491 kts 66°
2026-05-07 20:07 49.70028 6.41826 25081 ft 491 kts 65°
2026-05-07 20:07 49.71455 6.46609 25077 ft 491 kts 62°
2026-05-07 20:08 49.73254 6.51092 25074 ft 490 kts 52°
2026-05-07 20:08 49.75485 6.55045 25065 ft 489 kts 43°
2026-05-07 20:08 49.78081 6.58441 25067 ft 488 kts 37°
2026-05-07 20:08 49.80738 6.61725 25064 ft 488 kts 37°
2026-05-07 20:09 49.83393 6.65015 25064 ft 488 kts 37°
2026-05-07 20:09 49.86032 6.68304 25065 ft 488 kts 38°
2026-05-07 20:09 49.88678 6.71617 25065 ft 488 kts 38°
2026-05-07 20:10 49.93957 6.78246 25063 ft 488 kts 38°
2026-05-07 20:10 49.96589 6.81559 25065 ft 488 kts 38°
2026-05-07 20:10 49.99229 6.84892 25058 ft 488 kts 38°
2026-05-07 20:10 50.01857 6.88221 25067 ft 488 kts 38°
2026-05-07 20:11 50.04499 6.91569 25070 ft 488 kts 38°
2026-05-07 20:11 50.07129 6.94895 25089 ft 488 kts 38°
2026-05-07 20:11 50.09764 6.98226 25071 ft 488 kts 38°
2026-05-07 20:11 50.12548 7.01232 25076 ft 486 kts 26°
2026-05-07 20:12 50.15593 7.03514 25078 ft 487 kts 26°
2026-05-07 20:12 50.18355 7.06567 25094 ft 489 kts 43°
2026-05-07 20:12 50.20514 7.10678 25095 ft 490 kts 54°
2026-05-07 20:12 50.22593 7.14879 25072 ft 490 kts 46°
2026-05-07 20:13 50.25228 7.18190 25078 ft 480 kts 31°
2026-05-07 20:13 50.27912 7.21063 25065 ft 459 kts 41°
2026-05-07 20:13 50.29865 7.24902 24953 ft 443 kts 63°
2026-05-07 20:13 50.30747 7.29366 24803 ft 421 kts 86°
2026-05-07 20:14 50.30499 7.33714 24660 ft 388 kts 109°
2026-05-07 20:14 50.29277 7.37313 24132 ft 367 kts 132°
2026-05-07 20:14 50.27586 7.40245 23303 ft 360 kts 134°
2026-05-07 20:14 50.25922 7.43111 22438 ft 354 kts 134°
2026-05-07 20:15 50.24282 7.45944 21596 ft 348 kts 134°
2026-05-07 20:15 50.22672 7.48721 20766 ft 343 kts 134°
2026-05-07 20:15 50.21074 7.51466 19946 ft 339 kts 134°
2026-05-07 20:15 50.19494 7.54173 19165 ft 335 kts 134°
2026-05-07 20:16 50.17933 7.56841 18398 ft 331 kts 134°
2026-05-07 20:16 50.16386 7.59478 17538 ft 327 kts 134°
2026-05-07 20:16 50.14838 7.62110 16322 ft 332 kts 134°
2026-05-07 20:16 50.13284 7.64797 15218 ft 337 kts 130°
2026-05-07 20:17 50.11950 7.67665 14774 ft 319 kts 123°
2026-05-07 20:17 50.10886 7.70674 14107 ft 313 kts 115°
2026-05-07 20:17 50.10102 7.73772 13345 ft 309 kts 108°
2026-05-07 20:17 50.09481 7.76979 12559 ft 306 kts 107°
2026-05-07 20:18 50.08905 7.80148 11801 ft 302 kts 102°
2026-05-07 20:18 50.08601 7.83410 11344 ft 302 kts 94°
2026-05-07 20:18 50.08605 7.86637 10982 ft 300 kts 85°
2026-05-07 20:18 50.08925 7.89826 10896 ft 297 kts 76°
2026-05-07 20:19 50.09531 7.92914 10821 ft 297 kts 69°
2026-05-07 20:19 50.10263 7.95893 10490 ft 296 kts 69°
2026-05-07 20:19 50.10996 7.98884 10171 ft 294 kts 69°
2026-05-07 20:19 50.11726 8.01859 9846 ft 293 kts 69°
2026-05-07 20:20 50.12360 8.04443 9475 ft 292 kts 69°
2026-05-07 20:20 50.13002 8.07454 9039 ft 290 kts 79°
2026-05-07 20:20 50.13320 8.10576 8624 ft 289 kts 85°
2026-05-07 20:20 50.12975 8.13562 8292 ft 283 kts 119°
2026-05-07 20:21 50.11662 8.15727 7982 ft 268 kts 154°
2026-05-07 20:21 50.09966 8.16615 7659 ft 258 kts 172°
2026-05-07 20:21 50.08176 8.16810 7333 ft 255 kts 185°
2026-05-07 20:21 50.06447 8.16328 7010 ft 252 kts 201°
2026-05-07 20:22 50.04913 8.15057 6689 ft 249 kts 220°
2026-05-07 20:22 50.03768 8.13090 6357 ft 245 kts 240°
2026-05-07 20:22 50.03081 8.10675 6068 ft 243 kts 251°
2026-05-07 20:22 50.02487 8.08163 5879 ft 246 kts 250°
2026-05-07 20:23 50.01898 8.05692 5703 ft 246 kts 250°
2026-05-07 20:23 50.01278 8.03206 5512 ft 246 kts 244°
2026-05-07 20:23 50.00171 8.01206 5337 ft 247 kts 213°
2026-05-07 20:23 49.98569 8.00370 5157 ft 246 kts 181°
2026-05-07 20:24 49.96942 8.00934 5045 ft 238 kts 149°
2026-05-07 20:24 49.95798 8.02703 5005 ft 236 kts 116°
2026-05-07 20:24 49.95210 8.05122 5012 ft 237 kts 105°
2026-05-07 20:24 49.94766 8.07594 5009 ft 237 kts 104°
2026-05-07 20:25 49.94436 8.10071 5013 ft 235 kts 90°
2026-05-07 20:25 49.94709 8.12563 5016 ft 237 kts 69°
2026-05-07 20:25 49.95298 8.14977 5017 ft 238 kts 68°
2026-05-07 20:25 49.95892 8.17378 4951 ft 239 kts 68°
2026-05-07 20:26 49.96474 8.19767 4673 ft 237 kts 68°
2026-05-07 20:26 49.97044 8.22114 4342 ft 231 kts 68°
2026-05-07 20:26 49.97596 8.24389 4004 ft 219 kts 68°
2026-05-07 20:26 49.98119 8.26544 3709 ft 209 kts 68°
2026-05-07 20:27 49.98620 8.28611 3409 ft 199 kts 68°
2026-05-07 20:27 49.99087 8.30542 3113 ft 182 kts 69°
2026-05-07 20:27 49.99512 8.32309 2914 ft 166 kts 69°
2026-05-07 20:27 49.99895 8.33892 2650 ft 153 kts 69°
2026-05-07 20:28 50.00273 8.35415 2370 ft 148 kts 68°
2026-05-07 20:28 50.00636 8.36894 2154 ft 145 kts 69°
2026-05-07 20:28 50.00878 8.37878 2022 ft 148 kts 69°
2026-05-07 20:28 50.01350 8.39837 1758 ft 146 kts 70°
2026-05-07 20:29 50.01578 8.40830 1623 ft 146 kts 70°
2026-05-07 20:29 50.02041 8.42795 1359 ft 145 kts 70°
2026-05-07 20:29 50.02282 8.43796 1223 ft 146 kts 69°
2026-05-07 20:29 50.02629 8.45258 1015 ft 145 kts 69°
2026-05-07 20:30 50.02983 8.46726 762 ft 143 kts 69°
2026-05-07 20:30 50.03332 8.48159 565 ft 140 kts 68°
2026-05-07 20:30 50.03664 8.49551 393 ft 137 kts 69°
2026-05-07 20:30 50.03982 8.50869 324 ft 112 kts 69°
2026-05-07 20:31 50.04197 8.51755 335 ft 62 kts 69°
2026-05-07 20:31 50.04328 8.52301 346 ft 42 kts 69°
2026-05-07 20:31 50.04393 8.52701 351 ft 36 kts 88°
2026-05-07 20:31 50.04378 8.52946 354 ft 5 kts 102°
2026-05-07 20:32 50.04372 8.53018 359 ft 8 kts 95°
2026-05-07 20:32 50.04364 8.53107 358 ft 10 kts 100°
2026-05-07 20:32 50.04350 8.53213 361 ft 9 kts 99°
2026-05-07 20:32 50.04351 8.53307 366 ft 8 kts 76°
2026-05-07 20:33 50.04372 8.53400 374 ft 12 kts 71°
2026-05-07 20:33 50.04400 8.53580 375 ft 23 kts 84°
2026-05-07 20:33 50.04419 8.53857 375 ft 27 kts 84°
2026-05-07 20:33 50.04438 8.54150 375 ft 27 kts 83°
2026-05-07 20:34 50.04457 8.54429 371 ft 25 kts 90°
2026-05-07 20:34 50.04385 8.54691 362 ft 28 kts 132°
2026-05-07 20:34 50.04218 8.54828 357 ft 23 kts 162°
2026-05-07 20:34 50.04066 8.54918 359 ft 19 kts 160°
2026-05-07 20:35 50.04018 8.55026 355 ft 13 kts 78°
2026-05-07 20:35 50.04054 8.55163 360 ft 15 kts 69°
2026-05-07 20:35 50.04094 8.55331 353 ft 18 kts 70°
2026-05-07 20:35 50.04141 8.55536 360 ft 21 kts 72°
2026-05-07 20:36 50.04197 8.55762 358 ft 23 kts 68°
2026-05-07 20:36 50.04255 8.55988 360 ft 23 kts 68°
2026-05-07 20:36 50.04313 8.56220 360 ft 23 kts 69°
2026-05-07 20:36 50.04364 8.56454 359 ft 23 kts 72°
2026-05-07 20:37 50.04418 8.56692 362 ft 23 kts 70°
2026-05-07 20:37 50.04488 8.56860 359 ft 17 kts 24°
2026-05-07 20:37 50.04610 8.56913 356 ft 21 kts 11°
2026-05-07 20:37 50.04745 8.57000 363 ft 22 kts 25°
2026-05-07 20:38 50.04839 8.57065 360 ft 7 kts 24°
2026-05-07 20:38 50.04891 8.57074 360 ft 8 kts 341°
2026-05-07 20:38 50.04918 8.57061 359 ft 1 kts 354°
2026-05-07 20:38 50.04922 8.57073 357 ft 1 kts 67°
2026-05-07 20:39 50.04919 8.57080 359 ft 1 kts 105°
2026-05-07 20:39 50.04919 8.57084 359 ft 0 kts 103°